[[{"header":{"parameterUnit":"m.s-1","parameterCategory":1,"la1":30.2991,"la2":30.254,"lo1":-89.0895,"lo2":-89.0444,"dy":0.0017,"dx":0.0017,"nx":28,"ny":28,"refTime":"2023-10-31T21:00:00:Z","depth":0,"parameterNumber":2,"parameterNumberName":"U-component_of_WINDS"},"data":[0,0,0,0,0,0,0,0,0,0,0,0,0,0,0,0,0,0,0,0,0,0,0,0,0,0,0,0,0,0,0,0,0,0,0,0,0,0,0,0,0,0,0,0,0,0,0,0,0,0,0,0,0,0,0,0,0,0,-4.5804,-4.5804,0,-4.5794,-4.5794,-4.5793,-4.5657,-4.5653,-4.565,-4.5647,-4.564,-4.5643,-4.5646,0,0,0,0,0,0,0,0,0,0,0,0,0,-4.5709,-4.5712,-4.5804,-4.5804,-4.5804,-4.5794,-4.5794,-4.5793,-4.5657,-4.5653,-4.5649,-4.5645,-4.5639,-4.5642,-4.5646,0,0,0,0,0,0,0,0,0,0,0,0,0,-4.573,-4.5713,-4.5804,-4.5734,-4.5728,-4.5794,-4.5794,-4.5793,-4.5658,-4.5653,-4.5648,-4.5643,-4.5638,-4.5642,-4.5647,-4.5779,0,0,-4.5661,-4.5663,0,0,0,0,0,0,0,0,-4.5729,-4.5734,-4.5745,-4.5739,-4.5732,-4.5721,-4.5758,-4.5789,-4.566,-4.5685,-4.5646,-4.564,-4.5671,-4.5673,-4.5682,-4.5779,-4.5778,-4.5661,-4.5664,-4.5666,-4.5667,0,0,0,0,0,0,0,-4.5728,-4.5734,-4.58,-4.5745,-4.5738,-4.5705,-4.5702,-4.5763,-4.5708,-4.5682,-4.5672,-4.5673,-4.5667,-4.5678,-4.5681,-4.5778,-4.5661,-4.5665,-4.5668,-4.567,-4.5985,-4.599,0,0,0,0,0,0,-4.5736,-4.5733,-4.58,-4.5799,-4.5718,-4.5711,-4.5708,-4.573,-4.5706,-4.5698,-4.5677,-4.5667,-4.5673,-4.5676,-4.5681,-4.5835,-4.5666,-4.567,-4.5673,-4.5979,-4.5986,-4.5992,0,0,0,0,0,0,-4.5734,-4.5743,-4.5801,-4.5764,-4.5768,-4.5718,-4.5744,-4.5733,-4.5744,-4.5703,-4.5692,-4.5699,-4.5669,-4.5674,-4.5756,-4.5833,-4.5672,-4.5676,-4.5973,-4.5981,-4.5989,-4.6145,0,0,0,0,0,0,-4.5732,-4.5743,-4.5792,-4.5766,-4.5771,-4.5875,-4.5749,-4.5736,-4.5752,-4.5737,-4.572,-4.5712,-4.5665,-4.575,-4.576,-4.5836,-4.568,-4.5965,-4.5976,-4.5986,-4.6132,-4.6157,-4.6179,0,0,0,0,0,-4.5729,-4.5836,-4.5795,-4.5804,-4.5831,-4.588,-4.5883,-4.5825,-4.5758,-4.5808,-4.5782,-4.5713,-4.5823,-4.5759,-4.577,-4.5848,-4.596,-4.5973,-4.5986,-4.6122,-4.6152,-4.6178,0,0,0,0,0,0,-4.5874,-4.5832,-4.5785,-4.5887,-4.5888,-4.5856,-4.5917,-4.5859,-4.588,-4.5866,-4.5795,-4.5793,-4.5886,-4.5875,-4.5805,-4.5976,-4.588,-4.5895,-4.598,-4.6008,-4.6031,-4.6032,-4.5684,0,0,0,0,0,-4.5917,-4.5959,-4.5921,-4.6015,-4.6017,-4.5968,-4.5987,-4.5943,-4.5941,-4.5941,-4.5921,-4.5923,-4.5958,-4.5982,-4.6012,-4.613,-4.6126,-4.619,-4.6213,-4.6232,-4.6247,-4.631,-4.6338,-4.6034,-4.6033,-4.6033,0,0,-4.6008,-4.599,-4.6021,-4.6043,-4.6039,-4.6085,-4.5969,-4.6022,-4.6057,-4.5949,-4.6025,-4.6011,-4.6009,-4.611,-4.6153,-4.6104,-4.633,-4.6248,-4.6264,-4.6268,-4.6326,-4.6355,-4.6381,-4.6042,-4.6041,-4.6039,0,0,-4.6197,-4.6188,-4.6265,-4.6263,-4.6257,-4.6224,-4.6243,-4.622,-4.6207,-4.6281,-4.6202,-4.6243,-4.6304,-4.6306,-4.6315,-4.6508,-4.6446,-4.652,-4.6641,-4.6703,-4.6727,-4.6748,-4.6818,-4.6844,-4.6534,-4.6535,-4.6535,0,-4.6311,-4.6376,-4.6312,-4.6372,-4.6385,-4.6289,-4.6368,-4.637,-4.6375,-4.6387,-4.6331,-4.6407,-4.6399,-4.65,-4.6547,-4.6557,-4.6578,-4.6521,-4.6729,-4.6749,-4.6768,-4.6834,-4.686,-4.6544,-4.6543,-4.6542,-4.6541,0,-4.6517,-4.6564,-4.6628,-4.6635,-4.6654,-4.6724,-4.6672,-4.67,-4.6655,-4.6628,-4.6707,-4.6694,-4.672,-4.674,-4.6697,-4.6836,-4.6806,-4.6741,-4.6642,-4.6807,-4.6868,-4.6892,-4.6557,-4.6553,-4.6551,-4.6548,0,0,-4.6796,-4.6767,-4.6792,-4.6794,-4.6782,-4.6818,-4.6884,-4.6908,-4.6935,-4.6942,-4.6997,-4.7052,-4.6992,-4.7003,-4.6959,-4.7014,-4.7169,-4.6942,-4.6941,-4.6986,-4.7323,-4.7372,-4.7402,-4.7128,-4.7133,-4.7136,-4.7324,0,-4.6979,-4.7088,-4.7033,-4.715,-4.7193,-4.7104,-4.7162,-4.7162,-4.7139,-4.7174,-4.7149,-4.7189,-4.7107,-4.7113,-4.7163,-4.714,-4.7236,-4.7125,-4.718,-4.7182,-4.7183,-4.7434,-4.7486,-4.7663,-4.7347,-4.7351,-4.7354,0,-4.7206,-4.7223,-4.7344,-4.7325,-4.7341,-4.7394,-4.7413,-4.7447,-4.7446,-4.7425,-4.7439,-4.7383,-4.7448,-4.7351,-4.744,-4.7366,-4.7385,-4.7378,-4.7383,-4.7386,-4.7278,-4.7445,-4.7718,-4.7745,-4.739,-4.7387,-4.7385,0,-4.7398,-4.7451,-4.753,-4.7535,-4.7515,-4.7555,-4.7548,-4.7542,-4.7561,-4.7578,-4.759,-4.7616,-4.763,-4.7652,-4.7605,-4.7538,-4.7702,-4.76,-4.7689,-4.769,-4.7727,-4.7725,-4.8008,-4.7739,-4.7739,-4.7738,-4.7738,0,-4.7608,-4.7686,-4.7617,-4.7666,-4.7751,-4.7688,-4.7775,-4.7759,-4.7755,-4.78,-4.7725,-4.777,-4.7705,-4.7745,-4.7709,-4.779,-4.7796,-4.7783,-4.7773,-4.779,-4.7792,-4.7802,-4.7788,-4.7745,-4.7744,-4.7742,-4.7741,0,-4.7837,-4.7793,-4.7874,-4.7849,-4.7845,-4.7909,-4.7887,-4.7933,-4.7905,-4.7964,-4.7975,-4.7932,-4.7974,-4.793,-4.7969,-4.7945,-4.8054,-4.8026,-4.8055,-4.8047,-4.8137,-4.813,-4.8437,-4.8475,-4.8181,-4.8184,-4.8187,0,-4.7974,-4.8032,-4.8013,-4.8037,-4.8035,-4.8076,-4.8095,-4.8037,-4.806,-4.8064,-4.811,-4.8146,-4.8171,-4.8244,-4.8217,-4.8248,-4.8219,-4.8325,-4.8224,-4.824,-4.8222,-4.822,-4.8226,-4.8346,-4.8349,-4.8352,-4.8354,0,-4.8222,-4.8198,-4.8227,-4.8251,-4.8276,-4.8291,-4.8301,-4.8327,-4.8266,-4.8296,-4.8338,-4.8358,-4.8399,-4.8436,-4.8459,-4.8454,-4.8396,-4.8387,-4.8409,-4.8427,-4.8442,-4.8436,-4.8112,-4.838,-4.8377,-4.8375,-4.8374,-4.8373,-4.8409,-4.8457,-4.8451,-4.8487,-4.8489,-4.8501,-4.8542,-4.852,-4.8554,-4.8581,-4.8545,-4.8598,-4.8597,-4.8622,-4.8624,-4.8666,-4.8621,-4.8653,-4.8661,-4.867,-4.8684,-4.8436,-4.867,-4.8669,-4.8668,-4.8667,-4.8667,0,-4.8653,-4.8646,-4.868,-4.8696,-4.8726,-4.8667,-4.8676,-4.8705,-4.8751,-4.8755,-4.8782,-4.8832,-4.8868,-4.8845,-4.8877,-4.8914,-4.8889,-4.8925,-4.8922,-4.8922,-4.8721,-4.8699,-4.8945,-4.8945,-4.8945,-4.8945,-4.8945,-4.8945,-4.8784,-4.8862,-4.8838,-4.8917,-4.8909,-4.8959,-4.897,-4.8981,-4.8983,-4.9042,-4.9071,-4.9056,-4.905,-4.9081,-4.9112,-4.9105,-4.912,-4.9166,-4.915,-4.8963,-4.8936,-4.891,-4.8889,-4.917,-4.917,-4.9346,-4.9348,-4.9349]},{"header":{"parameterUnit":"m.s-1","parameterCategory":1,"la1":30.2991,"la2":30.254,"lo1":-89.0895,"lo2":-89.0444,"dy":0.0017,"dx":0.0017,"nx":28,"ny":28,"refTime":"2023-10-31T21:00:00:Z","depth":0,"parameterNumber":3,"parameterNumberName":"V-component_of_WINDS"},"data":[0,0,0,0,0,0,0,0,0,0,0,0,0,0,0,0,0,0,0,0,0,0,0,0,0,0,0,0,0,0,0,0,0,0,0,0,0,0,0,0,0,0,0,0,0,0,0,0,0,0,0,0,0,0,0,0,0,0,-0.7598,-0.7598,0,-0.7613,-0.7613,-0.7614,-0.7586,-0.7585,-0.7584,-0.7583,-0.7601,-0.7602,-0.7604,0,0,0,0,0,0,0,0,0,0,0,0,0,-0.7546,-0.7547,-0.7598,-0.7598,-0.7599,-0.7613,-0.7613,-0.7614,-0.7586,-0.7585,-0.7584,-0.7583,-0.7601,-0.7602,-0.7604,0,0,0,0,0,0,0,0,0,0,0,0,0,-0.7566,-0.7548,-0.7598,-0.7587,-0.7586,-0.7613,-0.7613,-0.7614,-0.7586,-0.7585,-0.7584,-0.7582,-0.76,-0.7602,-0.7604,-0.7644,0,0,-0.761,-0.7611,0,0,0,0,0,0,0,0,-0.7565,-0.7568,-0.7588,-0.7587,-0.7586,-0.7596,-0.7602,-0.7624,-0.7587,-0.7586,-0.7583,-0.7582,-0.7601,-0.7603,-0.7609,-0.7645,-0.7646,-0.761,-0.7612,-0.7612,-0.7613,0,0,0,0,0,0,0,-0.7564,-0.7567,-0.7604,-0.7588,-0.7587,-0.7581,-0.7582,-0.7606,-0.7601,-0.7586,-0.7584,-0.7586,-0.76,-0.7607,-0.7609,-0.7646,-0.761,-0.7612,-0.7613,-0.7614,-0.7715,-0.7717,0,0,0,0,0,0,-0.7563,-0.7566,-0.7604,-0.7605,-0.7572,-0.7583,-0.7584,-0.7595,-0.7601,-0.76,-0.7587,-0.7585,-0.7604,-0.7606,-0.7609,-0.7656,-0.7612,-0.7614,-0.7615,-0.7714,-0.7716,-0.7717,0,0,0,0,0,0,-0.7562,-0.7567,-0.7603,-0.7585,-0.7589,-0.7585,-0.7597,-0.7596,-0.7602,-0.7602,-0.7601,-0.7595,-0.7603,-0.7606,-0.7635,-0.7657,-0.7615,-0.7617,-0.7712,-0.7714,-0.7716,-0.7751,0,0,0,0,0,0,-0.7561,-0.7567,-0.7582,-0.7585,-0.759,-0.7629,-0.7598,-0.7597,-0.7606,-0.7602,-0.7609,-0.7608,-0.7602,-0.7633,-0.7637,-0.7659,-0.7619,-0.771,-0.7713,-0.7716,-0.7748,-0.7755,-0.776,0,0,0,0,0,-0.7559,-0.7592,-0.7583,-0.7588,-0.7609,-0.763,-0.7633,-0.7624,-0.7607,-0.7623,-0.7622,-0.7608,-0.7653,-0.7636,-0.7641,-0.7663,-0.7709,-0.7712,-0.7716,-0.7746,-0.7753,-0.776,0,0,0,0,0,0,-0.7593,-0.7592,-0.7582,-0.7617,-0.7624,-0.7625,-0.7645,-0.7633,-0.7645,-0.7642,-0.7631,-0.7633,-0.7664,-0.7666,-0.7647,-0.7702,-0.7678,-0.7683,-0.77,-0.7707,-0.7712,-0.7712,-0.762,0,0,0,0,0,-0.7604,-0.7621,-0.762,-0.765,-0.7654,-0.7649,-0.7658,-0.765,-0.7657,-0.766,-0.7662,-0.7669,-0.7685,-0.7696,-0.771,-0.7748,-0.7749,-0.7766,-0.7772,-0.7776,-0.7781,-0.78,-0.7808,-0.7728,-0.7728,-0.7728,0,0,-0.7628,-0.763,-0.7641,-0.7657,-0.7661,-0.7679,-0.7652,-0.7672,-0.7685,-0.7663,-0.7691,-0.7692,-0.77,-0.7733,-0.7748,-0.7736,-0.7803,-0.7781,-0.7784,-0.7786,-0.7805,-0.7812,-0.7819,-0.7731,-0.773,-0.773,0,0,-0.768,-0.7683,-0.7709,-0.7713,-0.7719,-0.7715,-0.7721,-0.7725,-0.7724,-0.7751,-0.7735,-0.775,-0.7778,-0.7784,-0.779,-0.7843,-0.7831,-0.7848,-0.7879,-0.7898,-0.7904,-0.791,-0.7928,-0.7935,-0.7852,-0.7852,-0.7852,0,-0.771,-0.7735,-0.7724,-0.7745,-0.7752,-0.7732,-0.7758,-0.7763,-0.7774,-0.778,-0.7766,-0.7799,-0.7803,-0.7837,-0.7849,-0.7855,-0.7862,-0.7848,-0.7904,-0.7909,-0.7914,-0.7932,-0.7939,-0.7854,-0.7854,-0.7854,-0.7854,0,-0.7771,-0.7789,-0.7809,-0.7819,-0.7828,-0.7852,-0.7844,-0.7855,-0.7846,-0.7843,-0.787,-0.7874,-0.7888,-0.7895,-0.7888,-0.7928,-0.7921,-0.7905,-0.7882,-0.7924,-0.7941,-0.7948,-0.7857,-0.7857,-0.7856,-0.7855,0,0,-0.7847,-0.7848,-0.7856,-0.786,-0.7864,-0.7878,-0.79,-0.7913,-0.7923,-0.7931,-0.7949,-0.7972,-0.7957,-0.7965,-0.7957,-0.7974,-0.8015,-0.7957,-0.7957,-0.7968,-0.806,-0.8072,-0.808,-0.8006,-0.8007,-0.8008,-0.8059,0,-0.7899,-0.7937,-0.7926,-0.7964,-0.798,-0.796,-0.7979,-0.7984,-0.7981,-0.7995,-0.7992,-0.8009,-0.7988,-0.7993,-0.8008,-0.8007,-0.8034,-0.8003,-0.8024,-0.8025,-0.8023,-0.8088,-0.8101,-0.8149,-0.8066,-0.8067,-0.8068,0,-0.7966,-0.7975,-0.8014,-0.8014,-0.8021,-0.8038,-0.8049,-0.8062,-0.8067,-0.8064,-0.8071,-0.8059,-0.8081,-0.8056,-0.8086,-0.8065,-0.8073,-0.8073,-0.8075,-0.8077,-0.805,-0.8093,-0.8164,-0.8172,-0.8078,-0.8077,-0.8076,0,-0.8018,-0.804,-0.8065,-0.8069,-0.8071,-0.8083,-0.8084,-0.8087,-0.8096,-0.8105,-0.811,-0.8122,-0.8128,-0.8138,-0.813,-0.8112,-0.8161,-0.8135,-0.8159,-0.816,-0.8172,-0.8171,-0.8246,-0.8175,-0.8175,-0.8175,-0.8175,0,-0.8078,-0.8103,-0.8089,-0.8105,-0.8132,-0.8119,-0.8146,-0.8145,-0.8147,-0.8163,-0.8146,-0.8161,-0.8149,-0.8163,-0.8157,-0.8182,-0.8185,-0.8184,-0.8182,-0.8186,-0.8186,-0.8192,-0.8188,-0.8177,-0.8176,-0.8176,-0.8176,0,-0.8141,-0.8133,-0.816,-0.8158,-0.8158,-0.8178,-0.8176,-0.8191,-0.8186,-0.8206,-0.821,-0.8203,-0.8219,-0.8211,-0.8228,-0.8223,-0.8256,-0.825,-0.8255,-0.8253,-0.8278,-0.8276,-0.8359,-0.8369,-0.8292,-0.8293,-0.8293,0,-0.8181,-0.8199,-0.8198,-0.8207,-0.8209,-0.8223,-0.8231,-0.8218,-0.8227,-0.8233,-0.8247,-0.8261,-0.8271,-0.8297,-0.8294,-0.8306,-0.83,-0.8328,-0.8302,-0.8305,-0.8301,-0.83,-0.8302,-0.8334,-0.8335,-0.8335,-0.8336,0,-0.8252,-0.8246,-0.8257,-0.8267,-0.8276,-0.8283,-0.8289,-0.8297,-0.8284,-0.8295,-0.831,-0.8318,-0.8334,-0.8347,-0.8358,-0.8359,-0.8346,-0.8344,-0.835,-0.8355,-0.8357,-0.8356,-0.827,-0.8343,-0.8342,-0.8341,-0.8341,-0.8341,-0.8304,-0.8319,-0.8321,-0.8334,-0.8336,-0.8342,-0.8355,-0.8351,-0.8363,-0.8375,-0.8366,-0.8384,-0.8387,-0.8399,-0.8402,-0.8416,-0.8405,-0.8414,-0.8416,-0.8419,-0.8422,-0.8354,-0.8418,-0.8417,-0.8417,-0.8417,-0.8417,0,-0.8375,-0.8374,-0.8386,-0.8394,-0.8404,-0.8388,-0.8393,-0.8403,-0.8418,-0.8422,-0.8432,-0.8449,-0.8461,-0.8458,-0.847,-0.8482,-0.8476,-0.8485,-0.8485,-0.8485,-0.8432,-0.8425,-0.849,-0.849,-0.849,-0.849,-0.849,-0.849,-0.8413,-0.8437,-0.8431,-0.8456,-0.8455,-0.8472,-0.8476,-0.8481,-0.8483,-0.8502,-0.8513,-0.851,-0.8511,-0.8522,-0.8533,-0.8532,-0.8537,-0.8549,-0.8546,-0.8496,-0.8489,-0.8482,-0.8476,-0.855,-0.855,-0.8598,-0.8598,-0.8599]}]]